Погода в Михайловске

Россия / Свердловская область     56°26′08″N   59°07′13″E
темп.,
°C
ветер,
м/с
пор.,
м/с
влажн.,
%
обл.,
%
осадки,
мм/ч
давл.,
гПа
погр.,
м
13 мая, чт
чт1323:00+14ссз1155100 0.0 102710
02:00+14сз115593 0.0 102710
05:00+12с116563 0.0 102810
08:00+18сз125115 0.0 1028199
11:00+23сз233241 0.0 10271338
14:00+26зсз33295 0.0 10261916
17:00+26зсз23295 0.0 10252070
20:00+21зсз22485 0.0 102523
14 мая, пт
пт1423:00+16с11596 0.0 102611
02:00+15юз00630 0.0 102611
05:00+14ю11673 0.0 102711
08:00+19ююз12515 0.0 1027200
11:00+25юз35395 0.0 10261599
14:00+27зюз46282 0.0 10252387
17:00+27зюз462574 0.0 10242070
20:00+22зюз26475 0.0 1023159
15 мая, сб
сб1523:00+17юз226537 0.0 102413
02:00+16юз227097 0.0 102421
05:00+14ююз227387 0.0 102423
08:00+19юз266096 0.1 1024244
11:00+25зюз583687 0.1 10231224
14:00+27зюз682936 0.0 10221813
17:00+27з582883 0.0 10221903
20:00+23з384424 0.0 1021239
16 мая, вс
вс1623:00+17зюз116191 0.0 102111
02:00+15ююз126421 0.0 102211
05:00+14ююз11688 0.0 102211
08:00+20юз244914 0.0 1022256
11:00+26зюз463352 0.0 10211179
14:00+28зюз46267 0.0 10202358
17:00+28зюз57265 0.0 10192796
20:00+23з27435 0.0 1019181
17 мая, пн
пн1723:00+18ююз22580 0.0 101913
02:00+16ююз22664 0.0 101917
05:00+15ю22693 0.0 101918
08:00+20юз385130 0.0 1019337
11:00+26зюз5103491 0.0 10172224
14:00+27з61025100 0.0 10173021
17:00+27з5930100 0.0 10163394
20:00+24з4104257 0.0 1016765